Regional Weather Roundup
Issued by NWS

Home | Current Version | Previous Version | Graphics & Text | Print | Product List | Glossary On
Versions: 1 2 3 4 5 6 7 8 9 10 11 12 13 14 15 16 17 18 19 20 21 22 23 24 25 26 27 28 29 30 31 32 33 34 35 36 37 38 39 40 41 42 43 44 45 46 47 48 49 50
768
ASUS43 KMPX 240401
RWRMN
WEATHER ROUNDUP FOR MINNESOTA
NATIONAL WEATHER SERVICE TWIN CITIES/CHANHASSEN MN
1100 PM CDT FRI JUN 23 2017


NOTE: "FAIR" INDICATES FEW OR NO CLOUDS BELOW 12,000 FEET WITH NO
SIGNIFICANT WEATHER AND/OR OBSTRUCTIONS TO VISIBILITY. N/A MEANS
CURRENT SKY AND/OR WEATHER CONDITIONS ARE NOT AVAILABLE.

MNZ060>063-068>070-240500-
   Twin Cities Metro

CITY           SKY/WX    TMP DP  RH WIND       PRES   REMARKS
TWIN CITIES    MOCLDY    64  48  56 NW17G23   29.93R
ST PAUL        CLOUDY    63  50  62 NW14      29.93R
CRYSTAL        CLOUDY    63  46  54 NW13G18   29.92R
BLAINE         PTCLDY    64  48  55 W10G16    29.93R
LAKEVILLE      CLOUDY    63  52  67 NW13      29.94R
EDEN PRAIRIE   CLOUDY    65  49  56 NW13      29.93R
SOUTH ST PAUL  CLOUDY    64  49  59 NW12      29.93R
LAKE ELMO      FAIR      61  50  67 NW8G16    29.93R
$$
MNZ001>005-007-008-013>017-022>024-027-028-240500-
   Northwest Minnesota

CITY           SKY/WX    TMP DP  RH WIND       PRES   REMARKS
BEMIDJI        CLEAR     49  46  87 W6        29.94S
HALLOCK        CLOUDY    55  43  62 W8        29.95S
ROSEAU           N/A     55  48  76 W8        29.92S
WARROAD        CLOUDY    54  48  82 W7        29.91S
CROOKSTON      CLOUDY    55  43  62 NW9       29.98S
FOSSTON        CLOUDY    52  39  62 W10       29.97S
DETROIT LAKES  MOCLDY    55  41  58 NW9       30.00R
MOORHEAD       MOCLDY    57  39  51 NW17G23   30.01R
PARK RAPIDS    MOCLDY    55  43  63 NW10      29.96R
MAHNOMEN       CLOUDY    54  40  59 NW13      29.98R
$$
MNZ006-009>011-018-025>026-240500-
   North Central Minnesota

CITY           SKY/WX    TMP DP  RH WIND       PRES   REMARKS
BAUDETTE       CLOUDY    54  49  83 W9        29.89S
FLAG ISLAND    DRIZZLE   54  50  87 W12       29.87S
INTL FALLS     CLOUDY    53  50  89 W8        29.86R
WASKISH        CLOUDY    55  48  76 W8G18     29.91S
BIG FORK       CLOUDY    55  46  71 W6        29.90S
LONGVILLE      PTCLDY    55  46  71 MISG      29.93S
GRAND RAPIDS   CLOUDY    56  47  71 NW12G21   29.92R
CRANE LAKE     CLOUDY    54  52  94 W5        29.85S
ORR            CLOUDY    54  48  82 W9G16     29.84S
COOK           CLOUDY    54  50  87 W12G20    29.87R
WALKER         MOCLDY    49  46  90 CALM      29.95R
$$
MNZ012-019>021-037-240500-
   Northeast Minnesota

CITY           SKY/WX    TMP DP  RH WIND       PRES   REMARKS
DULUTH         CLOUDY    54  50  86 NW13G22   29.85R
ELY            RAIN      54  52  94 NW6       29.84R
HIBBING        CLOUDY    53  48  83 NW15G24   29.88R
EVELETH        CLOUDY    57  47  70 NW13G22   29.87S
DULUTH HARBOR  CLOUDY    61  54  77 W17       29.85S
TWO HARBORS    CLOUDY    61  54  77 NW12G20   29.80S
SILVER BAY     PTCLDY    59  54  82 NW6       29.79S
GRAND MARAIS     N/A     61  52  72 NW9G17    29.74S
G MARAIS ARPRT PTCLDY    54  46  76 NW6       29.78F
$$
MNZ029>031-032-039>041-046>048-054>057-064-240500-
   West Central Minnesota

CITY           SKY/WX    TMP DP  RH WIND       PRES   REMARKS
FERGUS FALLS   CLEAR     54  43  66 NW9       29.99R
WHEATON        CLEAR     55  41  58 W7        30.04R
MORRIS         PTCLDY    57  43  58 NW12      30.01R
ALEXANDRIA     CLOUDY    59  43  55 NW10G22   29.99R
ELBOW LAKE     FAIR      55  42  60 W10G17    30.01R
WADENA         CLOUDY    55  41  58 NW12      29.97R
GLENWOOD       PTCLDY    57  43  58 NW16      29.99R
APPLETON       PTCLDY    61  39  44 NW10G17   30.02R
BENSON         PTCLDY    57  43  58 N10       30.02R
ORTONVILLE     CLEAR     59  43  55 NW10G16   30.03R
MADISON        CLEAR     59  46  63 NW9       30.03R
WILLMAR        FAIR      57  50  77 W7        30.01R
$$
MNZ033>034-036-042>043-049>051-058-059-240500-
   Central Minnesota

CITY           SKY/WX    TMP DP  RH WIND       PRES   REMARKS
ST CLOUD       PTCLDY    59  47  64 W9        29.95R
SAUK CENTRE    CLOUDY    55  48  76 W5        29.97R
PAYNESVILLE    MOCLDY    51  47  84 CALM      29.98R
AITKIN         MOCLDY    54  48  82 CALM      29.92R
PINE RIVER     PTCLDY    54  48  82 CALM      29.98R
BRAINERD       PTCLDY    56  47  71 NW6       29.95R
STAPLES        MOCLDY    54  43  66 NW10      29.96R
LONG PRAIRIE   CLOUDY    55  45  67 W7        29.97R
LITTLE FALLS   CLEAR     54  45  71 W3        29.95R
LITCHFIELD     CLEAR     61  50  67 W7        29.98R
BUFFALO        MOCLDY    62  46  55 W8        29.96R
MAPLE LAKE     CLEAR     60  49  66 W7        29.97R
HUTCHINSON     CLEAR     58  49  71 W7        29.99R
$$
MNZ037-044-045-052-053-240500-
   East Central Minnesota

CITY           SKY/WX    TMP DP  RH WIND       PRES   REMARKS
PRINCETON      PTCLDY    61  48  63 W9        29.94R
MORA           CLOUDY    59  45  58 NW9       29.93R
CAMBRIDGE      CLOUDY    63  48  59 W9        29.91R
RUSH CITY      CLOUDY    55  50  82 NW3       29.91S
MOOSE LAKE     CLOUDY    57  46  67 NW7       29.88S
HINCKLEY       MOCLDY    55  52  88 W3        29.91R
CLOQUET        CLOUDY    54  46  76 W9        29.88R
MCGREGOR       PTCLDY    55  48  76 W7        29.92R
$$
MNZ071>073-080-081-089-090-097-098-240500-
   Southwest Minnesota

CITY           SKY/WX    TMP DP  RH WIND       PRES   REMARKS
MONTEVIDEO     PTCLDY    55  45  67 N7        30.02R
GRANITE FALLS  CLEAR     55  47  74 W9        30.03R
CANBY          CLEAR     56  44  62 CALM      30.05R
MARSHALL       CLEAR     53  46  77 W9        30.04R
REDWOOD FALLS  PTCLDY    57  47  69 W9        30.00R
OLIVIA         CLEAR     54  48  82 W7        29.99R
PIPESTONE      CLEAR     57  41  54 NW5       30.07R
WINDOM         CLEAR     54  46  76 W7        30.03R
WORTHINGTON    CLEAR     55  45  68 W10       30.06R
JACKSON        CLEAR     55  46  71 W8        30.04R
TRACY          CLEAR     58  45  60 W5        30.04R
SLAYTON        CLEAR     54  44  67 W8        30.06R
$$
MNZ065>067-074>077-082>085-091>093-240500-
   South Central Minnesota

CITY           SKY/WX    TMP DP  RH WIND       PRES   REMARKS
MANKATO        CLEAR     60  49  66 NW9       29.99R
NEW ULM        PTCLDY    55  48  76 W8        29.99S
ST JAMES       PTCLDY    55  48  76 W8        30.02R
FAIRMONT       CLEAR     58  49  72 NW9       30.02R
GLENCOE        CLEAR     59  52  77 W7        29.97R
FARIBAULT      CLOUDY    61  52  72 W10       29.96R
OWATONNA       CLOUDY    61  52  72 W9        29.96R
WASECA         PTCLDY    55  50  82 W8        29.99R
ALBERT LEA     CLEAR     61  50  67 NW6       29.98R
$$
MNZ078>079-086>088-094>096-240500-
   Southeast Minnesota

CITY           SKY/WX    TMP DP  RH WIND       PRES   REMARKS
ROCHESTER      PTCLDY    60  52  74 NW14G22   29.95R
RED WING       CLOUDY    64  50  59 NW6       29.90R
STANTON        CLOUDY    62  51  67 W8        29.93R
DODGE CENTER   MOCLDY    61  52  72 W9        29.95R
WINONA         MOCLDY    61  54  77 W3        29.90R
AUSTIN         CLEAR     61  50  67 W8        29.97R
PRESTON        CLEAR     59  51  75 NW13      29.94R
$$
ABBREVIATIONS USED IN REMARKS
   TC - TEMPERATURES IN CELSIUS
  WCI - WIND CHILL INDEX
   HX - HEAT INDEX
  VSB - VISIBILITY
$$




USA.gov is the U.S. government's official web portal to all federal, state and local government web resources and services.